This is the latest recevied weather packets stored in our database for station/object N4OOJ-13. If no packets are shown the sender has not sent any weather packets the latest 10 day(s).
| Time | Temp. | Humidity | Pressure | Rain* | Wind** | Luminosity | Snow |
|---|---|---|---|---|---|---|---|
| 1777438819 | 14.44° C | 99% | 1019.4 hPa | 0 mm | - | - | - |
| 1777437021 | 14.44° C | 99% | 1019.9 hPa | 0 mm | - | - | - |
| 1777414227 | 28.33° C | 48% | 1018.9 hPa | 0 mm | - | - | - |
| 1777413625 | 28.33° C | 47% | 1018.8 hPa | 0 mm | - | - | - |
| 1777410625 | 26.67° C | 52% | 1019.4 hPa | 0 mm | - | - | - |
| 1777408226 | 26.67° C | 53% | 1020.4 hPa | 0 mm | - | - | - |
| 1777407626 | 26.11° C | 55% | 1020.4 hPa | 0 mm | - | - | - |
| 1777407019 | 25° C | 59% | 1020.1 hPa | 0 mm | - | - | - |
| 1777405827 | 23.89° C | 62% | 1020.6 hPa | 0 mm | - | - | - |
| 1777404621 | 24.44° C | 61% | 1019.8 hPa | 0 mm | - | - | - |
| 1777404021 | 23.89° C | 64% | 1020 hPa | 0 mm | - | - | - |
| 1777399226 | 20° C | 79% | 1022.8 hPa | 0 mm | - | - | - |
| 1777397432 | 21.67° C | 72% | 1024.4 hPa | 0 mm | - | - | - |
| 1777396832 | 21.67° C | 70% | 1024.6 hPa | 0 mm | - | - | - |
| 1777396233 | 21.67° C | 70% | 1024.9 hPa | 0 mm | - | - | - |
| 1777395627 | 21.67° C | 64% | 1025.1 hPa | 0 mm | - | - | - |
| 1777395021 | 21.67° C | 65% | 1025.4 hPa | 0 mm | - | - | - |
| 1777394433 | 21.67° C | 65% | 1026.9 hPa | 0 mm | - | - | - |
| 1777393826 | 22.78° C | 63% | 1027.2 hPa | 0 mm | - | - | - |
| 1777392621 | 22.22° C | 64% | 1027.1 hPa | 0 mm | - | - | - |
| 1777390220 | 21.11° C | 70% | 1027.1 hPa | 0 mm | - | - | - |
| 1777389626 | 21.67° C | 70% | 1027.1 hPa | 0 mm | - | - | - |
| 1777387228 | 20.56° C | 72% | 1025.9 hPa | 0 mm | - | - | - |
| 1777386623 | 21.67° C | 70% | 1025.4 hPa | 0 mm | - | - | - |
| 1777384230 | 18.89° C | 78% | 1025.6 hPa | 0 mm | - | - | - |
* Rain latest hour (hover to see other rain measurements)
** Current wind speed in m/s (hover to see current wind gust speed)